• In Netherlands
  • List of Countries
  • For 7 days
  • Water Temperature
  • Satellite Maps
  • Weather Map
  • Weather Widgets
  • user-avatar
    Login

    Hourly Weather Pamporovo

    Today, 30 March, Thursday

    Time Temperature Precipitation Wind Pressure Humidity
    00:00 0°C° 0 mm 1 mps 624 mmHg 79%
    01:00 0°C° 0 mm 1 mps 624 mmHg 77%
    02:00 0°C° 0 mm 1 mps 624 mmHg 76%
    03:00 -2°C° 0 mm 2 mps 624 mmHg 74%
    04:00 -2°C° 0 mm 2 mps 624 mmHg 72%
    05:00 -2°C° 0 mm 2 mps 624 mmHg 71%
    06:00 +1°C° 0 mm 2 mps 625 mmHg 65%
    07:00 +2°C° 0 mm 2 mps 626 mmHg 60%
    08:00 +4°C° 0 mm 2 mps 627 mmHg 54%
    09:00 +6°C° 0 mm 2 mps 627 mmHg 49%
    10:00 +8°C° 0 mm 2 mps 628 mmHg 43%
    11:00 +10°C° 0 mm 2 mps 629 mmHg 37%
    12:00 +10°C° 0 mm 2 mps 629 mmHg 36%
    13:00 +12°C° 0 mm 2 mps 629 mmHg 35%
    14:00 +13°C° 0 mm 2 mps 629 mmHg 33%
    15:00 +12°C° 0 mm 2 mps 629 mmHg 38%
    16:00 +10°C° 0 mm 2 mps 628 mmHg 42%
    17:00 +10°C° 0 mm 2 mps 628 mmHg 46%
    18:00 +7°C° 0.2 mm 2 mps 628 mmHg 59%
    19:00 +5°C° 0.2 mm 2 mps 627 mmHg 72%
    20:00 +2°C° 0.2 mm 2 mps 627 mmHg 85%
    21:00 +2°C° 0.5 mm 2 mps 627 mmHg 87%
    22:00 +2°C° 0.5 mm 2 mps 627 mmHg 90%
    23:00 +1°C° 0.5 mm 2 mps 628 mmHg 93%

    Tomorrow, 31 March, Friday

    Time Temperature Precipitation Wind Pressure Humidity
    00:00 +1°C° 0.3 mm 2 mps 628 mmHg 93%
    01:00 +1°C° 0.3 mm 2 mps 628 mmHg 93%
    02:00 +1°C° 0.3 mm 2 mps 629 mmHg 93%
    03:00 +1°C° 0 mm 2 mps 629 mmHg 94%
    04:00 -1°C° 0 mm 2 mps 628 mmHg 94%
    05:00 -1°C° 0 mm 2 mps 628 mmHg 95%
    06:00 -1°C° 0 mm 2 mps 629 mmHg 91%
    07:00 +1°C° 0 mm 2 mps 629 mmHg 87%
    08:00 +2°C° 0 mm 2 mps 630 mmHg 83%
    09:00 +1°C° 0 mm 3 mps 630 mmHg 77%
    10:00 +2°C° 0 mm 3 mps 631 mmHg 72%
    11:00 +3°C° 0 mm 3 mps 631 mmHg 66%
    12:00 +4°C° 0.1 mm 3 mps 631 mmHg 63%
    13:00 +4°C° 0.1 mm 3 mps 631 mmHg 61%
    14:00 +4°C° 0.1 mm 3 mps 631 mmHg 59%
    15:00 +4°C° 0 mm 3 mps 630 mmHg 60%
    16:00 +3°C° 0 mm 3 mps 630 mmHg 61%
    17:00 +3°C° 0 mm 3 mps 629 mmHg 62%
    18:00 +2°C° 0 mm 2 mps 629 mmHg 71%
    19:00 -1°C° 0 mm 2 mps 628 mmHg 79%
    20:00 -1°C° 0 mm 1 mps 628 mmHg 87%
    21:00 -1°C° 0 mm 1 mps 628 mmHg 87%
    22:00 -2°C° 0 mm 1 mps 628 mmHg 88%
    23:00 -3°C° 0 mm 1 mps 627 mmHg 88%

    Day after tomorrow, 1 April, Saturday

    Time Temperature Precipitation Wind Pressure Humidity
    00:00 -3°C° 0 mm 1 mps 627 mmHg 87%
    01:00 -3°C° 0 mm 1 mps 627 mmHg 87%
    02:00 -4°C° 0 mm 1 mps 626 mmHg 86%
    03:00 -4°C° 0 mm 1 mps 626 mmHg 84%
    04:00 -4°C° 0 mm 1 mps 626 mmHg 82%
    05:00 -4°C° 0 mm 1 mps 625 mmHg 80%
    06:00 -3°C° 0 mm 1 mps 626 mmHg 71%
    07:00 -1°C° 0 mm 1 mps 627 mmHg 63%
    08:00 +1°C° 0 mm 1 mps 628 mmHg 54%
    09:00 +3°C° 0 mm 1 mps 629 mmHg 47%
    10:00 +5°C° 0 mm 1 mps 630 mmHg 40%
    11:00 +6°C° 0 mm 2 mps 631 mmHg 33%
    12:00 +7°C° 0 mm 2 mps 630 mmHg 31%
    13:00 +7°C° 0 mm 2 mps 630 mmHg 30%
    14:00 +8°C° 0 mm 2 mps 630 mmHg 28%
    15:00 +7°C° 0 mm 2 mps 630 mmHg 31%
    16:00 +7°C° 0 mm 2 mps 629 mmHg 34%
    17:00 +6°C° 0 mm 2 mps 629 mmHg 38%
    18:00 +3°C° 0 mm 2 mps 628 mmHg 49%
    19:00 +1°C° 0 mm 1 mps 627 mmHg 60%
    20:00 -2°C° 0 mm 1 mps 626 mmHg 72%
    21:00 -2°C° 0 mm 1 mps 626 mmHg 72%
    22:00 -3°C° 0 mm 1 mps 626 mmHg 73%
    23:00 -3°C° 0 mm 1 mps 626 mmHg 74%

    2 April, Sunday

    Time Temperature Precipitation Wind Pressure Humidity
    00:00 -3°C° 0 mm 1 mps 626 mmHg 72%
    01:00 -4°C° 0 mm 1 mps 625 mmHg 71%
    02:00 -4°C° 0 mm 1 mps 625 mmHg 70%
    03:00 -4°C° 0 mm 1 mps 625 mmHg 68%
    04:00 -6°C° 0 mm 1 mps 625 mmHg 67%
    05:00 -6°C° 0 mm 1 mps 625 mmHg 65%
    06:00 -3°C° 0 mm 1 mps 626 mmHg 56%
    07:00 0°C° 0 mm 1 mps 627 mmHg 48%
    08:00 +2°C° 0 mm 1 mps 628 mmHg 39%
    09:00 +4°C° 0 mm 1 mps 629 mmHg 34%
    10:00 +6°C° 0 mm 1 mps 630 mmHg 29%
    11:00 +8°C° 0 mm 1 mps 631 mmHg 23%
    12:00 +8°C° 0 mm 2 mps 631 mmHg 23%
    13:00 +8°C° 0 mm 2 mps 631 mmHg 23%
    14:00 +9°C° 0 mm 2 mps 631 mmHg 23%
    15:00 +8°C° 0 mm 2 mps 630 mmHg 27%
    16:00 +8°C° 0 mm 2 mps 630 mmHg 31%
    17:00 +7°C° 0 mm 2 mps 629 mmHg 35%
    18:00 +4°C° 0 mm 2 mps 628 mmHg 46%
    19:00 +2°C° 0 mm 1 mps 627 mmHg 56%
    20:00 -1°C° 0 mm 1 mps 626 mmHg 67%
    21:00 -2°C° 0 mm 1 mps 626 mmHg 72%
    22:00 -2°C° 0 mm 1 mps 626 mmHg 76%
    23:00 -4°C° 0 mm 0 mps 626 mmHg 80%

    3 April, Monday

    Time Temperature Precipitation Wind Pressure Humidity
    00:00 -4°C° 0 mm 0 mps 625 mmHg 81%
    01:00 -4°C° 0 mm 0 mps 625 mmHg 81%
    02:00 -5°C° 0 mm 0 mps 625 mmHg 82%
    03:00 -5°C° 0 mm 0 mps 625 mmHg 81%
    04:00 -5°C° 0 mm 0 mps 625 mmHg 81%
    05:00 -5°C° 0 mm 0 mps 624 mmHg 81%
    06:00 -3°C° 0 mm 0 mps 626 mmHg 70%
    07:00 0°C° 0 mm 0 mps 627 mmHg 60%
    08:00 +3°C° 0 mm 0 mps 628 mmHg 49%
    09:00 +5°C° 0 mm 1 mps 628 mmHg 44%
    10:00 +7°C° 0 mm 1 mps 629 mmHg 38%
    11:00 +9°C° 0 mm 1 mps 630 mmHg 32%
    12:00 +9°C° 0 mm 2 mps 630 mmHg 32%
    13:00 +10°C° 0 mm 2 mps 630 mmHg 31%
    14:00 +10°C° 0 mm 2 mps 630 mmHg 31%
    15:00 +10°C° 0 mm 2 mps 629 mmHg 34%
    16:00 +9°C° 0 mm 2 mps 629 mmHg 38%
    17:00 +8°C° 0 mm 2 mps 628 mmHg 41%
    18:00 +6°C° 0 mm 2 mps 627 mmHg 52%
    19:00 +4°C° 0 mm 1 mps 626 mmHg 63%
    20:00 +1°C° 0 mm 1 mps 625 mmHg 73%
    21:00 +1°C° 0 mm 1 mps 625 mmHg 75%
    22:00 0°C° 0 mm 1 mps 624 mmHg 76%
    23:00 0°C° 0 mm 1 mps 624 mmHg 77%

    4 April, Tuesday

    Time Temperature Precipitation Wind Pressure Humidity
    00:00 0°C° 0 mm 1 mps 624 mmHg 77%
    01:00 0°C° 0 mm 1 mps 624 mmHg 77%
    02:00 0°C° 0 mm 1 mps 624 mmHg 77%
    03:00 0°C° 0 mm 1 mps 624 mmHg 78%
    04:00 0°C° 0 mm 1 mps 623 mmHg 78%
    05:00 -1°C° 0 mm 0 mps 623 mmHg 78%
    06:00 0°C° 0 mm 0 mps 624 mmHg 75%
    07:00 +2°C° 0 mm 1 mps 624 mmHg 71%
    08:00 +4°C° 0 mm 1 mps 625 mmHg 67%
    09:00 +5°C° 0 mm 1 mps 625 mmHg 62%
    10:00 +6°C° 0 mm 1 mps 626 mmHg 58%
    11:00 +7°C° 0 mm 2 mps 626 mmHg 53%
    12:00 +7°C° 0.1 mm 2 mps 626 mmHg 54%
    13:00 +7°C° 0.1 mm 2 mps 626 mmHg 55%
    14:00 +7°C° 0.1 mm 2 mps 626 mmHg 55%
    15:00 +7°C° 0.4 mm 2 mps 626 mmHg 59%
    16:00 +6°C° 0.4 mm 2 mps 625 mmHg 64%
    17:00 +5°C° 0.4 mm 2 mps 625 mmHg 68%
    18:00 +4°C° 0.3 mm 2 mps 624 mmHg 76%
    19:00 +3°C° 0.3 mm 1 mps 624 mmHg 83%
    20:00 +1°C° 0.3 mm 1 mps 623 mmHg 91%
    21:00 +1°C° 0.1 mm 1 mps 623 mmHg 92%
    22:00 +1°C° 0.1 mm 1 mps 623 mmHg 93%
    23:00 0°C° 0.1 mm 1 mps 623 mmHg 93%
    Show more